Regional Weather Roundup
Issued by NWS

Home | Current Version | Previous Version | Graphics & Text | Print | Product List | Glossary On
Versions: 1 2 3 4 5 6 7 8 9 10 11 12 13 14 15 16 17 18 19 20 21 22 23 24 25 26 27 28 29 30 31 32 33 34 35 36 37 38 39 40 41 42 43 44 45 46 47 48 49 50
000
ASUS43 KLSX 190607
RWRMO

WEATHER SUMMARY FOR MISSOURI
NATIONAL WEATHER SERVICE SPRINGFIELD MO
100 AM CDT THU OCT 19 2017

NOTE: "FAIR" INDICATES FEW OR NO CLOUDS BELOW 12,000 FEET WITH NO
       SIGNIFICANT WEATHER AND/OR OBSTRUCTIONS TO VISIBILITY.
       CURRENT SKY AND/OR WEATHER CONDITIONS ARE NOT AVAILABLE FOR
       CHILLICOTHE AND FARMINGTON.

MOZ001>031-035>038-043-044-053-054-190700-
...NORTHERN AND WESTERN MISSOURI...

CITY           SKY/WX    TMP DP  RH WIND       PRES   REMARKS
KANSAS CTY INT CLEAR     57  50  77 SW7       30.05S
6HR MIN TEMP:  53; 6HR MAX TEMP:  59;

KANSAS C DTWN  CLEAR     58  50  75 N3        30.05S
6HR MIN TEMP:  58; 6HR MAX TEMP:  69;

LEE`S SUMMIT   CLEAR     61  50  67 SW10      30.07S
6HR MIN TEMP:  61; 6HR MAX TEMP:  68;

ST JOSEPH      CLEAR     47  47 100 CALM      30.05R
6HR MIN TEMP:  47; 6HR MAX TEMP:  65;

CHILLICOTHE      N/A     52  51  97 CALM      30.06S
6HR MIN TEMP:  52; 6HR MAX TEMP:  65;

KIRKSVILLE     CLEAR     51  48  89 S5        30.07S
6HR MIN TEMP:  49; 6HR MAX TEMP:  64;


$$
MOZ066>068-077>081-088>096-101>105-190700-
...SOUTHWEST MISSOURI...

CITY           SKY/WX    TMP DP  RH WIND       PRES   REMARKS
SPRINGFIELD    CLEAR     56  46  69 S9        30.10S
6HR MIN TEMP:  56; 6HR MAX TEMP:  65;

JOPLIN         CLEAR     56  49  77 S5        30.11R
6HR MIN TEMP:  55; 6HR MAX TEMP:  66;

BRANSON        CLEAR     54  46  76 CALM      30.13S

$$
MOZ032>034-039>042-045>050-055>058-069>072-190700-
...CENTRAL MISSOURI...

CITY           SKY/WX    TMP DP  RH WIND       PRES   REMARKS
COLUMBIA       CLEAR     56  46  69 S6        30.10R
6HR MIN TEMP:  55; 6HR MAX TEMP:  64;

JEFFERSON CITY CLEAR     51  45  79 CALM      30.10S
6HR MIN TEMP:  50; 6HR MAX TEMP:  67;

ROLLA          CLEAR     56  48  74 S10       30.13R
6HR MIN TEMP:  56; 6HR MAX TEMP:  65;

SEDALIA        CLEAR     61  50  67 SW9       30.10S
6HR MIN TEMP:  58; 6HR MAX TEMP:  66;

WHITEMAN AFB   CLEAR     53  48  82 S9        30.04S
WARRENSBURG    CLEAR     55  48  76 S6        30.08S
OSAGE BEACH    CLEAR     52  47  83 CALM      30.12S

$$
MOZ051-052-059>065-190700-
...EAST CENTRAL MISSOURI...

CITY           SKY/WX    TMP DP  RH WIND       PRES   REMARKS
ST LOUIS INTL  CLEAR     60  49  66 CALM      30.13R
6HR MIN TEMP:  60; 6HR MAX TEMP:  69;

SPIRIT OF STL  CLEAR     52  48  86 CALM      30.11R
6HR MIN TEMP:  51; 6HR MAX TEMP:  67;

ST CHARLES     CLEAR     51  48  89 E3        30.11S
6HR MIN TEMP:  50; 6HR MAX TEMP:  64;


$$
MOZ072>076-082>087-097>100-106>115-190700-
...SOUTH CENTRAL AND SOUTHEAST MISSOURI...

CITY           SKY/WX    TMP DP  RH WIND       PRES   REMARKS
CAPE GIRARDEAU PTCLDY    53  46  77 S3        30.16F
6HR MIN TEMP:  53; 6HR MAX TEMP:  63;

FARMINGTON     CLEAR     57  47  69 S5        30.15S
6HR MIN TEMP:  57; 6HR MAX TEMP:  63;

POPLAR BLUFF   CLEAR     50  47  89 CALM      30.16F
6HR MIN TEMP:  50; 6HR MAX TEMP:  66;

WEST PLAINS    CLEAR     58  48  69 S7        30.16S
6HR MIN TEMP:  58; 6HR MAX TEMP:  66;


$$



USA.gov is the U.S. government's official web portal to all federal, state and local government web resources and services.